Location: Chippewa Lake
(41.0698°N, 81.9010°W)
Time: 02:19:27
(UTC+00:00)

Ariane Rocket - Pass Details

Date: 09 May 2021
Orbit: 760 x 769 km, 98.7° (Epoch: 24 June)

Event Time Altitude Azimuth Distance (km) Brightness Sun altitude
Exits shadow 02:03:02 - 182° (S) 2,417 5.2 -15.3°
Reaches altitude 10° 02:03:23 10° 183° (S) 2,285 5.1 -15.3°
Maximum altitude 02:08:17 52° 260° (W) 949 3.7 -16.0°
Drops below altitude 10° 02:13:13 10° 336° (NNW) 2,305 6.5 -16.7°
Sets 02:15:36 0° 342° (NNW) 3,237 7.3 -17.1°
